THORAD DELTA 1 DEB, 8595

Orbit data source: Space-Track

THORAD DELTA 1 DEB, 8595 is space debris in SSO originally from a launch on Fri, 15 Nov 1974 UTC launched from the Air Force Western Test Range (AFWTR). Debris objects in space refer to the collection of defunct objects orbiting the Earth. Examples of debris include non-operational satellites, rocket bodies, and fragments generated from explosions, collisions, or faulty payload assembly.

Loading next visibility...
Identifier
8595, 1974-089DJ
Orbit
SSO
Country
Flag of USUS
Related business
Manufacturer
Unknown
Mission
Spacecraft
Bus & Motor
Unknown
Mass
Unknown
Launch date (UTC)
1974-11-15 (51 years ago)
Launch vehicle
Unknown
Launch site
Air Force Western Test Range (AFWTR)
Object type
Payload
Rocket body
Debris
Shape & HBR
Unknown shape, 0.2 m
Radar Cross Section
Small (<0.1 m²)

Expand to show TLE details & history
Last TLE update: 16 hours ago

TLE from 16 hours ago
0 THORAD DELTA 1 DEB
1 08595U 74089DJ  25302.53441016 -.00000014  00000-0  22409-3 0  9997
2 08595 101.4401 159.2363 0147679 161.6808 229.9170 12.25457240279160
Epoch: 2025-10-29T12:49Z
TLE epoch observation values (Epoch: 2025-10-29T12:49:33.037Z)
Latitude
29.7013°
Longitude
-77.85413°
Altitude
1,648.849 km
Speed
7.017 km/s
True Right ascension
10h 10m 33s
True Declination
29° 34' 12"
Sunlit
Object was in daylight at epoch
Visualization orbit readout
Latitude
Unknown
Longitude
Unknown
Altitude
Unknown
Speed
Unknown
Apparent Right ascension
Unknown
Apparent Declination
Unknown
Sunlit
N/A
Visualization observer readout
Local Sidereal Time
00:08:17
Azimuth
Unknown
Elevation
Unknown
Doppler factor
Unknown
Orbital elements
Apogee altitude
1,683.745 km
Perigee altitude
1,449.097 km
Semi-major axis
7,944.558 km
Eccentricity
0.01477
Inclination
101.4401°
RAAN
159.2363°
Arg. of periapsis
161.6808°
True anomaly
228.63754°
Mean anomaly
229.917°
Eccentric anomaly
229.27575°
Mean motion
3.06506 °/min
Orbital period
117.45 mins
BSTAR
0.00022409
Loading maneuver chart data...
Computing Atmospheric mass density...
Loading historical data...
Loading historical data...
Loading historical data...
Loading historical data...
Loading historical data...
Loading historical data...
Loading historical data...

Documentation

Showing up to 5 results
|